IGO579Y VICG-VIJU

Flight info

Callsign IGO579Y
Flight time 0h 30m
Altitude 25000
Route CHG J79 KNG/N0385F240 DCT PK DCT ATNUS DCT JJU
Aircraft A320/M-SDE3FGHIRWY/LB1

Departure

Time 2026-05-05 17:53
Airport Shaheed Bhagat Singh International Airport (VICG)

Arrival

Time 2026-05-05 18:24
Airport Jammu Airport (VIJU)
Time Latitude Longitude Altitude Speed Heading
2026-05-05 17:35 30.66972 76.78677 1029 ft 0 kts 206°
2026-05-05 17:44 30.66977 76.78680 1029 ft 2 kts 205°
2026-05-05 17:45 30.66995 76.78688 1027 ft 3 kts 195°
2026-05-05 17:45 30.67015 76.78693 1029 ft 3 kts 181°
2026-05-05 17:45 30.67034 76.78691 1026 ft 2 kts 161°
2026-05-05 17:45 30.67041 76.78689 1029 ft 0 kts 156°
2026-05-05 17:48 30.67039 76.78690 1029 ft 1 kts 156°
2026-05-05 17:48 30.67033 76.78686 1029 ft 1 kts 216°
2026-05-05 17:48 30.67041 76.78660 1029 ft 6 kts 296°
2026-05-05 17:48 30.67065 76.78605 1028 ft 7 kts 296°
2026-05-05 17:49 30.67099 76.78560 1030 ft 8 kts 321°
2026-05-05 17:49 30.67140 76.78489 1031 ft 14 kts 291°
2026-05-05 17:49 30.67181 76.78382 1031 ft 15 kts 294°
2026-05-05 17:49 30.67231 76.78270 1032 ft 15 kts 323°
2026-05-05 17:50 30.67333 76.78294 1032 ft 17 kts 24°
2026-05-05 17:50 30.67444 76.78349 1033 ft 10 kts 22°
2026-05-05 17:50 30.67457 76.78355 1033 ft 5 kts 22°
2026-05-05 17:50 30.67498 76.78375 1033 ft 7 kts 21°
2026-05-05 17:51 30.67539 76.78341 1033 ft 10 kts 305°
2026-05-05 17:51 30.67584 76.78243 1033 ft 16 kts 296°
2026-05-05 17:51 30.67644 76.78095 1033 ft 24 kts 295°
2026-05-05 17:51 30.67715 76.77914 1036 ft 25 kts 294°
2026-05-05 17:52 30.67788 76.77722 1037 ft 27 kts 294°
2026-05-05 17:52 30.67821 76.77591 1039 ft 13 kts 288°
2026-05-05 17:52 30.67833 76.77603 1039 ft 4 kts 89°
2026-05-05 17:52 30.67807 76.77676 1038 ft 19 kts 113°
2026-05-05 17:53 30.67649 76.78084 1034 ft 89 kts 114°
2026-05-05 17:53 30.67318 76.78936 1030 ft 140 kts 114°
2026-05-05 17:53 30.66862 76.80086 1305 ft 159 kts 114°
2026-05-05 17:53 30.66401 76.81255 1949 ft 160 kts 115°
2026-05-05 17:54 30.66061 76.82488 2551 ft 163 kts 91°
2026-05-05 17:54 30.66346 76.83789 2931 ft 179 kts 52°
2026-05-05 17:54 30.67423 76.84568 3250 ft 196 kts
2026-05-05 17:54 30.68829 76.84348 3506 ft 216 kts 343°
2026-05-05 17:55 30.70348 76.83787 3795 ft 242 kts 341°
2026-05-05 17:55 30.72005 76.83116 4277 ft 261 kts 340°
2026-05-05 17:55 30.73754 76.82399 5021 ft 271 kts 341°
2026-05-05 17:55 30.75530 76.81682 5981 ft 270 kts 341°
2026-05-05 17:56 30.77335 76.80970 6910 ft 272 kts 341°
2026-05-05 17:56 30.79126 76.80240 7785 ft 274 kts 336°
2026-05-05 17:56 30.80817 76.79179 8627 ft 278 kts 331°
2026-05-05 17:56 30.82506 76.78061 9496 ft 281 kts 330°
2026-05-05 17:57 30.84211 76.76925 10233 ft 288 kts 330°
2026-05-05 17:57 30.86019 76.75715 10496 ft 311 kts 330°
2026-05-05 17:57 30.87964 76.74408 10742 ft 332 kts 330°
2026-05-05 17:57 30.89992 76.73045 11312 ft 341 kts 330°
2026-05-05 17:58 30.92058 76.71658 12012 ft 344 kts 330°
2026-05-05 17:58 30.94146 76.70259 12732 ft 347 kts 330°
2026-05-05 17:58 30.96250 76.68851 13444 ft 351 kts 330°
2026-05-05 17:58 30.98372 76.67431 14112 ft 353 kts 330°
2026-05-05 17:59 31.00515 76.65997 14748 ft 356 kts 330°
2026-05-05 17:59 31.02671 76.64552 15351 ft 359 kts 330°
2026-05-05 17:59 31.04844 76.63094 15951 ft 362 kts 330°
2026-05-05 17:59 31.07036 76.61619 16544 ft 365 kts 330°
2026-05-05 18:00 31.09245 76.60140 17148 ft 368 kts 330°
2026-05-05 18:00 31.11469 76.58643 17759 ft 371 kts 329°
2026-05-05 18:00 31.13714 76.57124 18347 ft 374 kts 329°
2026-05-05 18:00 31.15975 76.55598 18892 ft 377 kts 329°
2026-05-05 18:01 31.17514 76.54563 19256 ft 379 kts 329°
2026-05-05 18:01 31.20549 76.52522 19962 ft 383 kts 329°
2026-05-05 18:01 31.22086 76.51491 20313 ft 385 kts 329°
2026-05-05 18:01 31.25205 76.49395 21005 ft 389 kts 329°
2026-05-05 18:02 31.26795 76.48326 21336 ft 391 kts 329°
2026-05-05 18:02 31.29162 76.46734 21820 ft 394 kts 329°
2026-05-05 18:02 31.31542 76.45128 22297 ft 397 kts 329°
2026-05-05 18:02 31.33942 76.43507 22764 ft 400 kts 329°
2026-05-05 18:03 31.36360 76.41871 23240 ft 403 kts 329°
2026-05-05 18:03 31.38793 76.40221 23672 ft 405 kts 329°
2026-05-05 18:03 31.41240 76.38560 24064 ft 408 kts 329°
2026-05-05 18:03 31.43700 76.36888 24453 ft 411 kts 329°
2026-05-05 18:04 31.46186 76.35198 24809 ft 414 kts 329°
2026-05-05 18:04 31.48677 76.33507 24928 ft 416 kts 329°
2026-05-05 18:04 31.51206 76.31791 24952 ft 423 kts 329°
2026-05-05 18:04 31.53761 76.30061 24955 ft 424 kts 329°
2026-05-05 18:05 31.56320 76.28326 24951 ft 425 kts 329°
2026-05-05 18:05 31.58878 76.26588 24952 ft 425 kts 329°
2026-05-05 18:05 31.61436 76.24851 24951 ft 425 kts 329°
2026-05-05 18:05 31.63994 76.23111 24956 ft 425 kts 329°
2026-05-05 18:06 31.66554 76.21365 24954 ft 425 kts 329°
2026-05-05 18:06 31.68249 76.20205 24958 ft 425 kts 329°
2026-05-05 18:06 31.71665 76.17868 24953 ft 425 kts 329°
2026-05-05 18:06 31.74235 76.16113 24957 ft 433 kts 329°
2026-05-05 18:07 31.76875 76.14313 24952 ft 445 kts 329°
2026-05-05 18:07 31.79581 76.12467 24954 ft 455 kts 329°
2026-05-05 18:07 31.82356 76.10567 24952 ft 465 kts 329°
2026-05-05 18:07 31.85171 76.08636 24957 ft 472 kts 329°
2026-05-05 18:08 31.88016 76.06688 24951 ft 474 kts 329°
2026-05-05 18:08 31.90863 76.04740 24953 ft 474 kts 329°
2026-05-05 18:08 31.93718 76.02785 24955 ft 474 kts 329°
2026-05-05 18:08 31.96570 76.00827 24948 ft 474 kts 329°
2026-05-05 18:09 31.99419 75.98869 24949 ft 474 kts 329°
2026-05-05 18:09 32.02298 75.96889 24949 ft 474 kts 329°
2026-05-05 18:09 32.05109 75.94954 24955 ft 474 kts 329°
2026-05-05 18:09 32.07993 75.92968 24955 ft 474 kts 329°
2026-05-05 18:10 32.10836 75.91006 24951 ft 473 kts 329°
2026-05-05 18:10 32.13675 75.89048 24951 ft 473 kts 329°
2026-05-05 18:10 32.16512 75.87090 24952 ft 473 kts 329°
2026-05-05 18:10 32.19352 75.85130 24778 ft 473 kts 329°
2026-05-05 18:11 32.22194 75.83168 24431 ft 473 kts 329°
2026-05-05 18:11 32.25040 75.81202 24089 ft 474 kts 329°
2026-05-05 18:11 32.27888 75.79235 23751 ft 474 kts 329°
2026-05-05 18:11 32.30727 75.77275 23392 ft 472 kts 329°
2026-05-05 18:12 32.33541 75.75328 22999 ft 462 kts 329°
2026-05-05 18:12 32.36263 75.73438 22554 ft 445 kts 329°
2026-05-05 18:12 32.38889 75.71610 22117 ft 432 kts 329°
2026-05-05 18:12 32.41457 75.69821 21329 ft 428 kts 329°
2026-05-05 18:13 32.44002 75.68051 20791 ft 418 kts 329°
2026-05-05 18:13 32.46481 75.66328 20139 ft 413 kts 329°
2026-05-05 18:13 32.48953 75.64609 19614 ft 410 kts 329°
2026-05-05 18:13 32.51401 75.62907 19089 ft 407 kts 329°
2026-05-05 18:14 32.53832 75.61215 18561 ft 403 kts 329°
2026-05-05 18:14 32.56228 75.59545 17975 ft 397 kts 329°
2026-05-05 18:14 32.58594 75.57894 17425 ft 392 kts 329°
2026-05-05 18:14 32.60929 75.56251 16870 ft 387 kts 327°
2026-05-05 18:15 32.62932 75.54189 16322 ft 381 kts 310°
2026-05-05 18:15 32.64292 75.51526 15783 ft 379 kts 293°
2026-05-05 18:15 32.64905 75.48486 15236 ft 382 kts 275°
2026-05-05 18:15 32.64782 75.45343 14707 ft 382 kts 266°
2026-05-05 18:16 32.64516 75.42216 14186 ft 380 kts 266°
2026-05-05 18:16 32.64252 75.39101 13656 ft 378 kts 266°
2026-05-05 18:16 32.63995 75.36010 13081 ft 375 kts 266°
2026-05-05 18:16 32.63744 75.32952 12272 ft 369 kts 266°
2026-05-05 18:17 32.63486 75.29789 11251 ft 364 kts 266°
2026-05-05 18:17 32.63244 75.26816 10325 ft 360 kts 266°
2026-05-05 18:17 32.63004 75.23882 9390 ft 355 kts 266°
2026-05-05 18:17 32.62766 75.20985 8436 ft 351 kts 266°
2026-05-05 18:18 32.62529 75.18130 7526 ft 345 kts 265°
2026-05-05 18:18 32.62300 75.15388 6703 ft 339 kts 265°
2026-05-05 18:18 32.62066 75.12594 6019 ft 325 kts 265°
2026-05-05 18:18 32.61847 75.09980 5428 ft 313 kts 265°
2026-05-05 18:19 32.61638 75.07470 4946 ft 299 kts 265°
2026-05-05 18:19 32.61437 75.05060 4453 ft 288 kts 265°
2026-05-05 18:19 32.61238 75.02700 3959 ft 279 kts 265°
2026-05-05 18:19 32.61047 75.00449 3579 ft 269 kts 265°
2026-05-05 18:20 32.60864 74.98303 3341 ft 254 kts 265°
2026-05-05 18:20 32.60692 74.96295 3221 ft 235 kts 265°
2026-05-05 18:20 32.60532 74.94444 3123 ft 217 kts 265°
2026-05-05 18:20 32.60386 74.92734 3033 ft 201 kts 265°
2026-05-05 18:21 32.60250 74.91137 2964 ft 188 kts 265°
2026-05-05 18:21 32.60123 74.89644 2869 ft 177 kts 265°
2026-05-05 18:21 32.60002 74.88211 2794 ft 173 kts 265°
2026-05-05 18:21 32.59931 74.86792 2714 ft 172 kts 279°
2026-05-05 18:22 32.60389 74.85525 2645 ft 169 kts 312°
2026-05-05 18:22 32.61356 74.84751 2415 ft 170 kts 344°
2026-05-05 18:22 32.62517 74.84571 2165 ft 167 kts 355°
2026-05-05 18:22 32.63620 74.84406 2057 ft 156 kts 349°
2026-05-05 18:23 32.64668 74.84149 1825 ft 153 kts 352°
2026-05-05 18:23 32.65721 74.84026 1538 ft 151 kts 355°
2026-05-05 18:23 32.66765 74.83963 1469 ft 151 kts 358°
2026-05-05 18:23 32.67844 74.83885 1054 ft 157 kts 354°
2026-05-05 18:24 32.68872 74.83820 966 ft 135 kts 355°
2026-05-05 18:24 32.69639 74.83768 964 ft 84 kts 357°
2026-05-05 18:24 32.69957 74.83751 965 ft 0 kts 358°
2026-05-05 18:24 32.69954 74.83741 966 ft 2 kts 236°
2026-05-05 18:25 32.69894 74.83747 964 ft 21 kts 174°
2026-05-05 18:25 32.69836 74.83753 965 ft 23 kts 175°
2026-05-05 18:25 32.69540 74.83771 964 ft 27 kts 179°
2026-05-05 18:25 32.69340 74.83787 963 ft 30 kts 175°
2026-05-05 18:26 32.69231 74.83845 963 ft 10 kts 133°
2026-05-05 18:26 32.69183 74.83902 962 ft 12 kts 135°
2026-05-05 18:26 32.69119 74.83966 962 ft 11 kts 143°
2026-05-05 18:26 32.69094 74.84031 963 ft 10 kts 67°
2026-05-05 18:27 32.69116 74.84116 963 ft 12 kts 75°
2026-05-05 18:27 32.69120 74.84194 964 ft 7 kts 136°
2026-05-05 18:27 32.69096 74.84181 964 ft 0 kts 208°